This demonstration page uses our WeatherBlox Daily Observations layout. Learn more.

Left ArrowRight Arrow

41.86663, -103.66717

Hourly Observations for November 7, 2020

Temp ( °F °C ) Dew Point ( °F °C ) Humidity (%) Winds ( mph kmh ) Pressure ( in mb ) Visibility ( mi km ) Precip ( " mm )
12:53 am 00:53 Clear 46 7.8 37 2.8 71 71 W 5 7 29.65 1004 10 16 0.00 0.00
1:53 am 01:53 Clear 42 5.6 35 1.7 76 76 NNW 3 6 29.65 1004 10 16 0.00 0.00
2:53 am 02:53 Clear 41 5 34 1.1 76 76 E 6 9 29.66 1004 10 16 0.00 0.00
3:53 am 03:53 Clear 40 4.4 33 0.6 77 77 E 3 6 29.66 1005 10 16 0.00 0.00
4:53 am 04:53 Clear 41 5 35 1.7 79 79 WNW 7 11 29.69 1006 10 16 0.00 0.00
5:53 am 05:53 Clear 42 5.6 35 1.7 76 76 Calm 29.68 1005 10 16 0.00 0.00
6:53 am 06:53 Sunny 40 4.4 35 1.7 83 83 Calm 29.70 1006 9 14 0.00 0.00
7:53 am 07:53 Sunny 44 6.7 37 2.8 76 76 NNW 6 9 29.67 1005 10 16 0.00 0.00
8:53 am 08:53 Sunny 53 11.7 35 1.7 51 51 E 3 6 29.65 1004 10 16 0.00 0.00
9:53 am 09:53 Sunny 56 13.3 38 3.3 51 51 SE 10 17 29.62 1003 10 16 0.00 0.00
10:53 am 10:53 Sunny 61 16.1 37 2.8 41 41 ESE 10 17 29.56 1001 10 16 0.00 0.00
11:53 am 11:53 Sunny 65 18.3 37 2.8 36 36 Calm 29.53 1000 10 16 0.00 0.00
12:53 pm 12:53 Mostly Sunny 69 20.6 38 3.3 32 32 ENE 5 7 29.49 999 10 16 0.00 0.00
1:53 pm 13:53 Hazy 70 21.1 38 3.3 31 31 WSW 5 7 29.49 999 5 8 0.00 0.00
2:53 pm 14:53 Sunny 68 20 40 4.4 36 36 WNW 6 9 29.48 998 10 16 0.00 0.00
3:53 pm 15:53 Sunny 65 18.3 40 4.4 40 40 WNW 9 15 29.47 998 10 16 0.00 0.00
4:53 pm 16:53 Clear 60 15.6 40 4.4 47 47 Calm 29.47 998 10 16 0.00 0.00
5:53 pm 17:53 Clear 54 12.2 40 4.4 59 59 Calm 29.47 998 10 16 0.00 0.00
6:53 pm 18:53 Clear 49 9.4 37 2.8 64 64 Calm 29.46 998 10 16 0.00 0.00
7:53 pm 19:53 Clear 50 10 36 2.2 59 59 E 7 11 29.40 996 10 16 0.00 0.00
8:53 pm 20:53 Clear 47 8.3 35 1.7 63 63 ESE 9 15 29.37 995 10 16 0.00 0.00
9:53 pm 21:53 Clear 47 8.3 36 2.2 66 66 ESE 6 9 29.34 994 10 16 0.00 0.00
10:53 pm 22:53 Clear 57 13.9 36 2.2 45 45 ESE 9 15 29.29 992 10 16 0.00 0.00
11:53 pm 23:53 Clear 62 16.7 37 2.8 40 40 SSE 15 24 29.23 990 10 16 0.00 0.00

Powered by AerisWeather